Year,Month,Day,Hour,Minute,Value (Times are PST for windgust in km/hr)
2015,12,06,00,00,17.70
2015,12,06,00,01,22.50
2015,12,06,00,02,16.10
2015,12,06,00,03,11.30
2015,12,06,00,04,14.50
2015,12,06,00,05,12.90
2015,12,06,00,06,16.10
2015,12,06,00,07,12.90
2015,12,06,00,08,11.30
2015,12,06,00,09,12.90
2015,12,06,00,10,17.70
2015,12,06,00,11,16.10
2015,12,06,00,12,19.30
2015,12,06,00,13,19.30
2015,12,06,00,14,17.70
2015,12,06,00,15,16.10
2015,12,06,00,16,14.50
2015,12,06,00,17,14.50
2015,12,06,00,18,20.90
2015,12,06,00,19,20.90
2015,12,06,00,20,19.30
2015,12,06,00,21,19.30
2015,12,06,00,22,29.00
2015,12,06,00,23,14.50
2015,12,06,00,24,33.80
2015,12,06,00,25,30.60
2015,12,06,00,26,20.90
2015,12,06,00,27,25.70
2015,12,06,00,28,16.10
2015,12,06,00,29,14.50
2015,12,06,00,30,20.90
2015,12,06,00,31,17.70
2015,12,06,00,32,19.30
2015,12,06,00,33,14.50
2015,12,06,00,34,19.30
2015,12,06,00,35,19.30
2015,12,06,00,36,17.70
2015,12,06,00,37,19.30
2015,12,06,00,38,20.90
2015,12,06,00,39,16.10
2015,12,06,00,40,14.50
2015,12,06,00,41,16.10
2015,12,06,00,42,25.70
2015,12,06,00,43,19.30
2015,12,06,00,44,25.70
2015,12,06,00,45,24.20
2015,12,06,00,46,22.50
2015,12,06,00,47,24.20
2015,12,06,00,48,22.50
2015,12,06,00,49,24.20
2015,12,06,00,50,29.00
2015,12,06,00,51,30.60
2015,12,06,00,52,25.70
2015,12,06,00,53,19.30
2015,12,06,00,54,17.70
2015,12,06,00,55,25.70
2015,12,06,00,56,22.50
2015,12,06,00,57,17.70
2015,12,06,00,58,16.10
2015,12,06,00,59,19.30
2015,12,06,01,00,14.50
2015,12,06,01,01,19.30
2015,12,06,01,02,19.30
2015,12,06,01,03,24.20
2015,12,06,01,04,25.70
2015,12,06,01,05,27.40
2015,12,06,01,06,22.50
2015,12,06,01,07,29.00
2015,12,06,01,08,30.60
2015,12,06,01,09,37.00
2015,12,06,01,10,29.00
2015,12,06,01,11,22.50
2015,12,06,01,12,22.50
2015,12,06,01,13,27.40
2015,12,06,01,14,27.40
2015,12,06,01,15,19.30
2015,12,06,01,16,27.40
2015,12,06,01,17,32.20
2015,12,06,01,18,29.00
2015,12,06,01,19,25.70
2015,12,06,01,20,27.40
2015,12,06,01,21,27.40
2015,12,06,01,22,27.40
2015,12,06,01,23,32.20
2015,12,06,01,24,27.40
2015,12,06,01,25,29.00
2015,12,06,01,26,19.30
2015,12,06,01,27,19.30
2015,12,06,01,28,24.20
2015,12,06,01,29,19.30
2015,12,06,01,30,30.60
2015,12,06,01,31,24.20
2015,12,06,01,32,30.60
2015,12,06,01,33,19.30
2015,12,06,01,34,19.30
2015,12,06,01,35,20.90
2015,12,06,01,36,22.50
2015,12,06,01,37,22.50
2015,12,06,01,38,27.40
2015,12,06,01,39,22.50
2015,12,06,01,40,22.50
2015,12,06,01,41,29.00
2015,12,06,01,42,29.00
2015,12,06,01,43,25.70
2015,12,06,01,44,27.40
2015,12,06,01,45,25.70
2015,12,06,01,46,37.00
2015,12,06,01,47,32.20
2015,12,06,01,48,30.60
2015,12,06,01,49,25.70
2015,12,06,01,50,30.60
2015,12,06,01,51,24.20
2015,12,06,01,52,32.20
2015,12,06,01,53,24.20
2015,12,06,01,54,24.20
2015,12,06,01,55,22.50
2015,12,06,01,56,22.50
2015,12,06,01,57,27.40
2015,12,06,01,58,38.60
2015,12,06,01,59,25.70
2015,12,06,02,00,32.20
2015,12,06,02,01,24.20
2015,12,06,02,02,35.40
2015,12,06,02,03,25.70
2015,12,06,02,04,30.60
2015,12,06,02,05,30.60
2015,12,06,02,06,33.80
2015,12,06,02,07,29.00
2015,12,06,02,08,25.70
2015,12,06,02,09,32.20
2015,12,06,02,10,29.00
2015,12,06,02,11,27.40
2015,12,06,02,12,22.50
2015,12,06,02,13,22.50
2015,12,06,02,14,20.90
2015,12,06,02,15,27.40
2015,12,06,02,16,27.40
2015,12,06,02,17,22.50
2015,12,06,02,18,20.90
2015,12,06,02,19,16.10
2015,12,06,02,20,19.30
2015,12,06,02,21,20.90
2015,12,06,02,22,17.70
2015,12,06,02,23,20.90
2015,12,06,02,24,24.20
2015,12,06,02,25,19.30
2015,12,06,02,26,27.40
2015,12,06,02,27,27.40
2015,12,06,02,28,25.70
2015,12,06,02,29,25.70
2015,12,06,02,30,19.30
2015,12,06,02,31,25.70
2015,12,06,02,32,24.20
2015,12,06,02,33,22.50
2015,12,06,02,34,22.50
2015,12,06,02,35,25.70
2015,12,06,02,36,24.20
2015,12,06,02,37,22.50
2015,12,06,02,38,32.20
2015,12,06,02,39,25.70
2015,12,06,02,40,19.30
2015,12,06,02,41,14.50
2015,12,06,02,42,20.90
2015,12,06,02,43,24.20
2015,12,06,02,44,22.50
2015,12,06,02,45,19.30
2015,12,06,02,46,25.70
2015,12,06,02,47,25.70
2015,12,06,02,48,30.60
2015,12,06,02,49,19.30
2015,12,06,02,50,24.20
2015,12,06,02,51,19.30
2015,12,06,02,52,24.20
2015,12,06,02,53,22.50
2015,12,06,02,54,17.70
2015,12,06,02,55,17.70
2015,12,06,02,56,19.30
2015,12,06,02,57,27.40
2015,12,06,02,58,20.90
2015,12,06,02,59,17.70
2015,12,06,03,00,24.20
2015,12,06,03,01,32.20
2015,12,06,03,02,35.40
2015,12,06,03,03,32.20
2015,12,06,03,04,24.20
2015,12,06,03,05,30.60
2015,12,06,03,06,32.20
2015,12,06,03,07,32.20
2015,12,06,03,08,30.60
2015,12,06,03,09,19.30
2015,12,06,03,10,16.10
2015,12,06,03,11,16.10
2015,12,06,03,12,16.10
2015,12,06,03,13,25.70
2015,12,06,03,14,27.40
2015,12,06,03,15,20.90
2015,12,06,03,16,17.70
2015,12,06,03,17,24.20
2015,12,06,03,18,32.20
2015,12,06,03,19,27.40
2015,12,06,03,20,27.40
2015,12,06,03,21,22.50
2015,12,06,03,22,25.70
2015,12,06,03,23,24.20
2015,12,06,03,24,37.00
2015,12,06,03,25,40.20
2015,12,06,03,26,27.40
2015,12,06,03,27,25.70
2015,12,06,03,28,24.20
2015,12,06,03,29,29.00
2015,12,06,03,30,20.90
2015,12,06,03,31,19.30
2015,12,06,03,32,25.70
2015,12,06,03,33,24.20
2015,12,06,03,34,22.50
2015,12,06,03,35,24.20
2015,12,06,03,36,24.20
2015,12,06,03,37,24.20
2015,12,06,03,38,30.60
2015,12,06,03,39,19.30
2015,12,06,03,40,19.30
2015,12,06,03,41,30.60
2015,12,06,03,42,29.00
2015,12,06,03,43,25.70
2015,12,06,03,44,32.20
2015,12,06,03,45,32.20
2015,12,06,03,46,24.20
2015,12,06,03,47,22.50
2015,12,06,03,48,24.20
2015,12,06,03,49,25.70
2015,12,06,03,50,25.70
2015,12,06,03,51,30.60
2015,12,06,03,52,33.80
2015,12,06,03,53,33.80
2015,12,06,03,54,25.70
2015,12,06,03,55,24.20
2015,12,06,03,56,17.70
2015,12,06,03,57,17.70
2015,12,06,03,58,19.30
2015,12,06,03,59,20.90
2015,12,06,04,00,20.90
2015,12,06,04,01,32.20
2015,12,06,04,02,24.20
2015,12,06,04,04,22.50
2015,12,06,04,05,24.20
2015,12,06,04,06,27.40
2015,12,06,04,07,27.40
2015,12,06,04,08,22.50
2015,12,06,04,09,17.70
2015,12,06,04,10,17.70
2015,12,06,04,11,17.70
2015,12,06,04,12,25.70
2015,12,06,04,13,25.70
2015,12,06,04,14,20.90
2015,12,06,04,15,25.70
2015,12,06,04,16,24.20
2015,12,06,04,17,20.90
2015,12,06,04,18,25.70
2015,12,06,04,19,25.70
2015,12,06,04,20,29.00
2015,12,06,04,21,20.90
2015,12,06,04,22,17.70
2015,12,06,04,23,19.30
2015,12,06,04,24,25.70
2015,12,06,04,25,25.70
2015,12,06,04,26,30.60
2015,12,06,04,27,24.20
2015,12,06,04,28,35.40
2015,12,06,04,29,25.70
2015,12,06,04,30,32.20
2015,12,06,04,31,33.80
2015,12,06,04,32,22.50
2015,12,06,04,33,30.60
2015,12,06,04,34,24.20
2015,12,06,04,35,33.80
2015,12,06,04,36,27.40
2015,12,06,04,37,25.70
2015,12,06,04,38,24.20
2015,12,06,04,39,20.90
2015,12,06,04,40,29.00
2015,12,06,04,41,27.40
2015,12,06,04,42,22.50
2015,12,06,04,43,24.20
2015,12,06,04,44,30.60
2015,12,06,04,45,29.00
2015,12,06,04,46,25.70
2015,12,06,04,47,27.40
2015,12,06,04,48,25.70
2015,12,06,04,49,40.20
2015,12,06,04,50,29.00
2015,12,06,04,51,24.20
2015,12,06,04,52,24.20
2015,12,06,04,53,25.70
2015,12,06,04,54,29.00
2015,12,06,04,55,29.00
2015,12,06,04,56,41.80
2015,12,06,04,57,24.20
2015,12,06,04,58,24.20
2015,12,06,04,59,25.70
2015,12,06,05,00,37.00
2015,12,06,05,01,33.80
2015,12,06,05,02,27.40
2015,12,06,05,03,29.00
2015,12,06,05,04,32.20
2015,12,06,05,05,29.00
2015,12,06,05,06,29.00
2015,12,06,05,07,27.40
2015,12,06,05,08,35.40
2015,12,06,05,09,19.30
2015,12,06,05,10,25.70
2015,12,06,05,11,37.00
2015,12,06,05,12,37.00
2015,12,06,05,13,29.00
2015,12,06,05,14,30.60
2015,12,06,05,15,24.20
2015,12,06,05,16,22.50
2015,12,06,05,17,25.70
2015,12,06,05,18,29.00
2015,12,06,05,19,24.20
2015,12,06,05,20,22.50
2015,12,06,05,21,32.20
2015,12,06,05,22,30.60
2015,12,06,05,23,32.20
2015,12,06,05,24,30.60
2015,12,06,05,25,25.70
2015,12,06,05,26,22.50
2015,12,06,05,27,25.70
2015,12,06,05,28,27.40
2015,12,06,05,29,25.70
2015,12,06,05,30,24.20
2015,12,06,05,31,29.00
2015,12,06,05,32,37.00
2015,12,06,05,33,32.20
2015,12,06,05,34,25.70
2015,12,06,05,35,29.00
2015,12,06,05,36,27.40
2015,12,06,05,37,32.20
2015,12,06,05,38,24.20
2015,12,06,05,39,30.60
2015,12,06,05,40,24.20
2015,12,06,05,41,20.90
2015,12,06,05,42,27.40
2015,12,06,05,43,29.00
2015,12,06,05,44,32.20
2015,12,06,05,45,33.80
2015,12,06,05,46,49.90
2015,12,06,05,47,35.40
2015,12,06,05,48,19.30
2015,12,06,05,49,32.20
2015,12,06,05,50,38.60
2015,12,06,05,51,33.80
2015,12,06,05,52,24.20
2015,12,06,05,53,40.20
2015,12,06,05,54,25.70
2015,12,06,05,55,24.20
2015,12,06,05,56,25.70
2015,12,06,05,57,29.00
2015,12,06,05,58,27.40
2015,12,06,05,59,25.70
2015,12,06,06,00,24.20
2015,12,06,06,01,25.70
2015,12,06,06,02,19.30
2015,12,06,06,03,32.20
2015,12,06,06,04,29.00
2015,12,06,06,05,33.80
2015,12,06,06,06,24.20
2015,12,06,06,07,22.50
2015,12,06,06,08,17.70
2015,12,06,06,09,29.00
2015,12,06,06,10,27.40
2015,12,06,06,11,22.50
2015,12,06,06,12,29.00
2015,12,06,06,13,30.60
2015,12,06,06,14,20.90
2015,12,06,06,15,30.60
2015,12,06,06,16,30.60
2015,12,06,06,17,30.60
2015,12,06,06,18,35.40
2015,12,06,06,19,27.40
2015,12,06,06,20,29.00
2015,12,06,06,21,32.20
2015,12,06,06,22,41.80
2015,12,06,06,23,30.60
2015,12,06,06,24,32.20
2015,12,06,06,25,37.00
2015,12,06,06,26,38.60
2015,12,06,06,27,40.20
2015,12,06,06,28,41.80
2015,12,06,06,29,27.40
2015,12,06,06,30,32.20
2015,12,06,06,31,32.20
2015,12,06,06,32,38.60
2015,12,06,06,33,35.40
2015,12,06,06,34,33.80
2015,12,06,06,35,40.20
2015,12,06,06,36,48.30
2015,12,06,06,37,33.80
2015,12,06,06,38,29.00
2015,12,06,06,39,33.80
2015,12,06,06,40,25.70
2015,12,06,06,41,37.00
2015,12,06,06,42,38.60
2015,12,06,06,43,40.20
2015,12,06,06,44,37.00
2015,12,06,06,45,30.60
2015,12,06,06,46,29.00
2015,12,06,06,47,45.10
2015,12,06,06,48,37.00
2015,12,06,06,49,32.20
2015,12,06,06,50,45.10
2015,12,06,06,51,45.10
2015,12,06,06,52,33.80
2015,12,06,06,53,38.60
2015,12,06,06,54,45.10
2015,12,06,06,55,33.80
2015,12,06,06,56,38.60
2015,12,06,06,57,32.20
2015,12,06,06,58,38.60
2015,12,06,06,59,46.70
2015,12,06,07,00,37.00
2015,12,06,07,01,40.20
2015,12,06,07,02,41.80
2015,12,06,07,03,41.80
2015,12,06,07,04,40.20
2015,12,06,07,05,37.00
2015,12,06,07,06,41.80
2015,12,06,07,07,45.10
2015,12,06,07,08,40.20
2015,12,06,07,09,29.00
2015,12,06,07,10,37.00
2015,12,06,07,11,32.20
2015,12,06,07,12,25.70
2015,12,06,07,13,27.40
2015,12,06,07,14,46.70
2015,12,06,07,15,32.20
2015,12,06,07,16,33.80
2015,12,06,07,17,37.00
2015,12,06,07,18,38.60
2015,12,06,07,19,32.20
2015,12,06,07,20,48.30
2015,12,06,07,21,46.70
2015,12,06,07,22,38.60
2015,12,06,07,23,37.00
2015,12,06,07,24,41.80
2015,12,06,07,25,38.60
2015,12,06,07,26,41.80
2015,12,06,07,27,35.40
2015,12,06,07,28,30.60
2015,12,06,07,29,35.40
2015,12,06,07,30,41.80
2015,12,06,07,31,32.20
2015,12,06,07,32,27.40
2015,12,06,07,33,16.10
2015,12,06,07,34,22.50
2015,12,06,07,35,19.30
2015,12,06,07,36,19.30
2015,12,06,07,37,19.30
2015,12,06,07,38,20.90
2015,12,06,07,39,29.00
2015,12,06,07,40,25.70
2015,12,06,07,41,25.70
2015,12,06,07,42,27.40
2015,12,06,07,43,24.20
2015,12,06,07,44,22.50
2015,12,06,07,45,19.30
2015,12,06,07,46,30.60
2015,12,06,07,47,24.20
2015,12,06,07,48,22.50
2015,12,06,07,49,22.50
2015,12,06,07,50,32.20
2015,12,06,07,51,20.90
2015,12,06,07,52,24.20
2015,12,06,07,53,20.90
2015,12,06,07,54,20.90
2015,12,06,07,55,22.50
2015,12,06,07,56,16.10
2015,12,06,07,57,19.30
2015,12,06,07,58,17.70
2015,12,06,07,59,24.20
2015,12,06,08,00,20.90
2015,12,06,08,01,32.20
2015,12,06,08,02,24.20
2015,12,06,08,03,32.20
2015,12,06,08,04,27.40
2015,12,06,08,05,24.20
2015,12,06,08,06,22.50
2015,12,06,08,07,27.40
2015,12,06,08,08,29.00
2015,12,06,08,09,17.70
2015,12,06,08,10,27.40
2015,12,06,08,11,22.50
2015,12,06,08,12,29.00
2015,12,06,08,13,22.50
2015,12,06,08,14,19.30
2015,12,06,08,15,14.50
2015,12,06,08,16,19.30
2015,12,06,08,17,20.90
2015,12,06,08,18,30.60
2015,12,06,08,19,37.00
2015,12,06,08,20,41.80
2015,12,06,08,21,37.00
2015,12,06,08,22,30.60
2015,12,06,08,23,27.40
2015,12,06,08,24,35.40
2015,12,06,08,25,38.60
2015,12,06,08,26,35.40
2015,12,06,08,27,30.60
2015,12,06,08,28,25.70
2015,12,06,08,29,33.80
2015,12,06,08,30,22.50
2015,12,06,08,31,24.20
2015,12,06,08,32,19.30
2015,12,06,08,33,19.30
2015,12,06,08,34,25.70
2015,12,06,08,35,29.00
2015,12,06,08,36,20.90
2015,12,06,08,37,24.20
2015,12,06,08,38,30.60
2015,12,06,08,39,43.50
2015,12,06,08,40,40.20
2015,12,06,08,41,29.00
2015,12,06,08,42,30.60
2015,12,06,08,43,40.20
2015,12,06,08,44,29.00
2015,12,06,08,45,29.00
2015,12,06,08,46,27.40
2015,12,06,08,47,37.00
2015,12,06,08,48,40.20
2015,12,06,08,49,43.50
2015,12,06,08,50,30.60
2015,12,06,08,51,30.60
2015,12,06,08,52,32.20
2015,12,06,08,53,30.60
2015,12,06,08,54,45.10
2015,12,06,08,55,37.00
2015,12,06,08,56,35.40
2015,12,06,08,57,51.50
2015,12,06,08,58,40.20
2015,12,06,08,59,33.80
2015,12,06,09,00,38.60
2015,12,06,09,01,29.00
2015,12,06,09,02,32.20
2015,12,06,09,03,45.10
2015,12,06,09,04,43.50
2015,12,06,09,05,40.20
2015,12,06,09,06,41.80
2015,12,06,09,07,37.00
2015,12,06,09,08,48.30
2015,12,06,09,09,45.10
2015,12,06,09,10,40.20
2015,12,06,09,11,46.70
2015,12,06,09,12,48.30
2015,12,06,09,13,33.80
2015,12,06,09,14,46.70
2015,12,06,09,15,40.20
2015,12,06,09,16,51.50
2015,12,06,09,17,51.50
2015,12,06,09,18,37.00
2015,12,06,09,19,38.60
2015,12,06,09,20,45.10
2015,12,06,09,21,32.20
2015,12,06,09,22,30.60
2015,12,06,09,23,30.60
2015,12,06,09,24,40.20
2015,12,06,09,25,40.20
2015,12,06,09,26,38.60
2015,12,06,09,27,37.00
2015,12,06,09,28,38.60
2015,12,06,09,29,41.80
2015,12,06,09,30,30.60
2015,12,06,09,31,38.60
2015,12,06,09,32,48.30
2015,12,06,09,33,35.40
2015,12,06,09,34,30.60
2015,12,06,09,35,40.20
2015,12,06,09,36,40.20
2015,12,06,09,37,45.10
2015,12,06,09,38,57.90
2015,12,06,09,39,51.50
2015,12,06,09,40,49.90
2015,12,06,09,41,40.20
2015,12,06,09,42,37.00
2015,12,06,09,43,40.20
2015,12,06,09,44,38.60
2015,12,06,09,45,38.60
2015,12,06,09,46,30.60
2015,12,06,09,47,40.20
2015,12,06,09,48,32.20
2015,12,06,09,49,35.40
2015,12,06,09,50,32.20
2015,12,06,09,51,43.50
2015,12,06,09,52,32.20
2015,12,06,09,53,33.80
2015,12,06,09,54,49.90
2015,12,06,09,55,41.80
2015,12,06,09,56,38.60
2015,12,06,09,57,43.50
2015,12,06,09,58,45.10
2015,12,06,09,59,40.20
2015,12,06,10,00,48.30
2015,12,06,10,01,41.80
2015,12,06,10,02,45.10
2015,12,06,10,03,37.00
2015,12,06,10,04,33.80
2015,12,06,10,05,38.60
2015,12,06,10,06,40.20
2015,12,06,10,07,38.60
2015,12,06,10,08,29.00
2015,12,06,10,09,27.40
2015,12,06,10,10,24.20
2015,12,06,10,11,27.40
2015,12,06,10,12,30.60
2015,12,06,10,13,24.20
2015,12,06,10,14,27.40
2015,12,06,10,15,24.20
2015,12,06,10,16,22.50
2015,12,06,10,17,27.40
2015,12,06,10,18,24.20
2015,12,06,10,19,24.20
2015,12,06,10,20,40.20
2015,12,06,10,21,32.20
2015,12,06,10,22,37.00
2015,12,06,10,23,29.00
2015,12,06,10,24,49.90
2015,12,06,10,25,38.60
2015,12,06,10,26,38.60
2015,12,06,10,27,46.70
2015,12,06,10,28,40.20
2015,12,06,10,29,33.80
2015,12,06,10,30,30.60
2015,12,06,10,31,45.10
2015,12,06,10,32,32.20
2015,12,06,10,33,30.60
2015,12,06,10,34,29.00
2015,12,06,10,35,29.00
2015,12,06,10,36,30.60
2015,12,06,10,37,35.40
2015,12,06,10,38,25.70
2015,12,06,10,39,35.40
2015,12,06,10,40,32.20
2015,12,06,10,41,30.60
2015,12,06,10,42,43.50
2015,12,06,10,43,33.80
2015,12,06,10,44,33.80
2015,12,06,10,45,43.50
2015,12,06,10,46,41.80
2015,12,06,10,47,40.20
2015,12,06,10,48,46.70
2015,12,06,10,49,45.10
2015,12,06,10,50,41.80
2015,12,06,10,51,46.70
2015,12,06,10,52,40.20
2015,12,06,10,53,37.00
2015,12,06,10,54,35.40
2015,12,06,10,55,33.80
2015,12,06,10,56,37.00
2015,12,06,10,57,45.10
2015,12,06,10,58,38.60
2015,12,06,10,59,32.20
2015,12,06,11,00,35.40
2015,12,06,11,01,45.10
2015,12,06,11,02,38.60
2015,12,06,11,03,43.50
2015,12,06,11,04,30.60
2015,12,06,11,05,38.60
2015,12,06,11,06,41.80
2015,12,06,11,07,46.70
2015,12,06,11,08,35.40
2015,12,06,11,09,33.80
2015,12,06,11,10,38.60
2015,12,06,11,11,45.10
2015,12,06,11,12,33.80
2015,12,06,11,13,41.80
2015,12,06,11,14,37.00
2015,12,06,11,15,29.00
2015,12,06,11,16,45.10
2015,12,06,11,17,45.10
2015,12,06,11,18,37.00
2015,12,06,11,19,37.00
2015,12,06,11,20,38.60
2015,12,06,11,21,37.00
2015,12,06,11,22,40.20
2015,12,06,11,23,33.80
2015,12,06,11,24,30.60
2015,12,06,11,25,41.80
2015,12,06,11,26,30.60
2015,12,06,11,27,32.20
2015,12,06,11,28,49.90
2015,12,06,11,29,35.40
2015,12,06,11,30,40.20
2015,12,06,11,31,30.60
2015,12,06,11,32,38.60
2015,12,06,11,33,43.50
2015,12,06,11,34,43.50
2015,12,06,11,35,40.20
2015,12,06,11,36,41.80
2015,12,06,11,37,27.40
2015,12,06,11,38,45.10
2015,12,06,11,39,38.60
2015,12,06,11,40,37.00
2015,12,06,11,41,29.00
2015,12,06,11,42,37.00
2015,12,06,11,43,41.80
2015,12,06,11,44,43.50
2015,12,06,11,45,43.50
2015,12,06,11,46,38.60
2015,12,06,11,47,37.00
2015,12,06,11,48,37.00
2015,12,06,11,49,33.80
2015,12,06,11,50,38.60
2015,12,06,11,51,40.20
2015,12,06,11,52,40.20
2015,12,06,11,53,48.30
2015,12,06,11,54,46.70
2015,12,06,11,55,46.70
2015,12,06,11,56,41.80
2015,12,06,11,57,40.20
2015,12,06,11,58,38.60
2015,12,06,11,59,38.60
2015,12,06,12,00,32.20
2015,12,06,12,01,43.50
2015,12,06,12,02,40.20
2015,12,06,12,03,38.60
2015,12,06,12,04,33.80
2015,12,06,12,05,38.60
2015,12,06,12,06,30.60
2015,12,06,12,07,37.00
2015,12,06,12,08,29.00
2015,12,06,12,09,35.40
2015,12,06,12,10,40.20
2015,12,06,12,11,37.00
2015,12,06,12,12,35.40
2015,12,06,12,13,33.80
2015,12,06,12,14,38.60
2015,12,06,12,15,40.20
2015,12,06,12,16,46.70
2015,12,06,12,17,45.10
2015,12,06,12,18,32.20
2015,12,06,12,19,46.70
2015,12,06,12,20,41.80
2015,12,06,12,21,46.70
2015,12,06,12,22,37.00
2015,12,06,12,23,37.00
2015,12,06,12,24,40.20
2015,12,06,12,25,38.60
2015,12,06,12,26,43.50
2015,12,06,12,27,45.10
2015,12,06,12,28,38.60
2015,12,06,12,29,32.20
2015,12,06,12,30,29.00
2015,12,06,12,31,43.50
2015,12,06,12,32,35.40
2015,12,06,12,33,32.20
2015,12,06,12,34,48.30
2015,12,06,12,35,40.20
2015,12,06,12,36,30.60
2015,12,06,12,37,30.60
2015,12,06,12,38,33.80
2015,12,06,12,39,37.00
2015,12,06,12,40,33.80
2015,12,06,12,41,32.20
2015,12,06,12,42,33.80
2015,12,06,12,43,40.20
2015,12,06,12,44,32.20
2015,12,06,12,45,32.20
2015,12,06,12,46,33.80
2015,12,06,12,47,38.60
2015,12,06,12,48,32.20
2015,12,06,12,49,33.80
2015,12,06,12,50,33.80
2015,12,06,12,51,38.60
2015,12,06,12,52,35.40
2015,12,06,12,53,30.60
2015,12,06,12,54,38.60
2015,12,06,12,55,37.00
2015,12,06,12,56,46.70
2015,12,06,12,57,38.60
2015,12,06,12,58,40.20
2015,12,06,12,59,37.00
2015,12,06,13,00,33.80
2015,12,06,13,01,37.00
2015,12,06,13,02,38.60
2015,12,06,13,03,32.20
2015,12,06,13,04,25.70
2015,12,06,13,05,33.80
2015,12,06,13,06,30.60
2015,12,06,13,07,30.60
2015,12,06,13,08,25.70
2015,12,06,13,09,24.20
2015,12,06,13,10,32.20
2015,12,06,13,11,33.80
2015,12,06,13,12,33.80
2015,12,06,13,13,33.80
2015,12,06,13,14,37.00
2015,12,06,13,15,30.60
2015,12,06,13,16,29.00
2015,12,06,13,17,37.00
2015,12,06,13,18,40.20
2015,12,06,13,19,30.60
2015,12,06,13,20,35.40
2015,12,06,13,21,37.00
2015,12,06,13,22,45.10
2015,12,06,13,23,40.20
2015,12,06,13,24,38.60
2015,12,06,13,25,38.60
2015,12,06,13,26,37.00
2015,12,06,13,27,46.70
2015,12,06,13,28,37.00
2015,12,06,13,29,33.80
2015,12,06,13,30,35.40
2015,12,06,13,31,38.60
2015,12,06,13,32,41.80
2015,12,06,13,33,30.60
2015,12,06,13,34,43.50
2015,12,06,13,35,45.10
2015,12,06,13,36,33.80
2015,12,06,13,37,33.80
2015,12,06,13,38,32.20
2015,12,06,13,39,32.20
2015,12,06,13,40,37.00
2015,12,06,13,41,45.10
2015,12,06,13,42,29.00
2015,12,06,13,43,32.20
2015,12,06,13,44,37.00
2015,12,06,13,45,38.60
2015,12,06,13,46,40.20
2015,12,06,13,47,45.10
2015,12,06,13,48,46.70
2015,12,06,13,49,41.80
2015,12,06,13,50,35.40
2015,12,06,13,51,49.90
2015,12,06,13,52,48.30
2015,12,06,13,53,40.20
2015,12,06,13,54,35.40
2015,12,06,13,55,45.10
2015,12,06,13,56,40.20
2015,12,06,13,57,43.50
2015,12,06,13,58,40.20
2015,12,06,13,59,40.20
2015,12,06,14,00,38.60
2015,12,06,14,01,38.60
2015,12,06,14,02,32.20
2015,12,06,14,03,30.60
2015,12,06,14,04,30.60
2015,12,06,14,05,35.40
2015,12,06,14,06,29.00
2015,12,06,14,07,33.80
2015,12,06,14,08,37.00
2015,12,06,14,09,37.00
2015,12,06,14,10,40.20
2015,12,06,14,11,25.70
2015,12,06,14,12,29.00
2015,12,06,14,13,30.60
2015,12,06,14,14,30.60
2015,12,06,14,15,35.40
2015,12,06,14,16,38.60
2015,12,06,14,17,37.00
2015,12,06,14,18,41.80
2015,12,06,14,19,51.50
2015,12,06,14,20,35.40
2015,12,06,14,21,35.40
2015,12,06,14,22,30.60
2015,12,06,14,23,29.00
2015,12,06,14,24,33.80
2015,12,06,14,25,30.60
2015,12,06,14,26,33.80
2015,12,06,14,27,37.00
2015,12,06,14,28,38.60
2015,12,06,14,29,38.60
2015,12,06,14,30,49.90
2015,12,06,14,31,57.90
2015,12,06,14,32,48.30
2015,12,06,14,33,67.60
2015,12,06,14,34,45.10
2015,12,06,14,35,43.50
2015,12,06,14,36,51.50
2015,12,06,14,37,46.70
2015,12,06,14,38,41.80
2015,12,06,14,39,53.10
2015,12,06,14,40,49.90
2015,12,06,14,41,61.20
2015,12,06,14,42,53.10
2015,12,06,14,43,51.50
2015,12,06,14,44,46.70
2015,12,06,14,45,51.50
2015,12,06,14,46,51.50
2015,12,06,14,47,45.10
2015,12,06,14,48,45.10
2015,12,06,14,49,54.70
2015,12,06,14,50,54.70
2015,12,06,14,51,53.10
2015,12,06,14,52,53.10
2015,12,06,14,53,62.70
2015,12,06,14,54,57.90
2015,12,06,14,55,49.90
2015,12,06,14,56,43.50
2015,12,06,14,57,53.10
2015,12,06,14,58,35.40
2015,12,06,14,59,49.90
2015,12,06,15,00,56.30
2015,12,06,15,01,62.70
2015,12,06,15,02,62.70
2015,12,06,15,03,49.90
2015,12,06,15,04,45.10
2015,12,06,15,05,59.50
2015,12,06,15,06,48.30
2015,12,06,15,07,53.10
2015,12,06,15,08,56.30
2015,12,06,15,09,45.10
2015,12,06,15,10,46.70
2015,12,06,15,11,48.30
2015,12,06,15,12,49.90
2015,12,06,15,13,53.10
2015,12,06,15,14,41.80
2015,12,06,15,15,46.70
2015,12,06,15,16,48.30
2015,12,06,15,17,40.20
2015,12,06,15,18,61.20
2015,12,06,15,19,45.10
2015,12,06,15,20,48.30
2015,12,06,15,21,43.50
2015,12,06,15,22,46.70
2015,12,06,15,23,43.50
2015,12,06,15,24,48.30
2015,12,06,15,25,53.10
2015,12,06,15,26,45.10
2015,12,06,15,27,53.10
2015,12,06,15,28,41.80
2015,12,06,15,29,43.50
2015,12,06,15,30,57.90
2015,12,06,15,31,57.90
2015,12,06,15,32,53.10
2015,12,06,15,33,46.70
2015,12,06,15,34,40.20
2015,12,06,15,35,56.30
2015,12,06,15,36,54.70
2015,12,06,15,37,41.80
2015,12,06,15,38,59.50
2015,12,06,15,39,45.10
2015,12,06,15,40,45.10
2015,12,06,15,41,45.10
2015,12,06,15,42,46.70
2015,12,06,15,43,51.50
2015,12,06,15,44,51.50
2015,12,06,15,45,45.10
2015,12,06,15,46,48.30
2015,12,06,15,47,40.20
2015,12,06,15,48,61.20
2015,12,06,15,49,54.70
2015,12,06,15,50,46.70
2015,12,06,15,51,54.70
2015,12,06,15,52,46.70
2015,12,06,15,53,67.60
2015,12,06,15,54,62.70
2015,12,06,15,55,51.50
2015,12,06,15,56,57.90
2015,12,06,15,57,51.50
2015,12,06,15,58,54.70
2015,12,06,15,59,51.50
2015,12,06,16,00,56.30
2015,12,06,16,01,56.30
2015,12,06,16,02,45.10
2015,12,06,16,03,45.10
2015,12,06,16,04,38.60
2015,12,06,16,05,45.10
2015,12,06,16,06,45.10
2015,12,06,16,07,48.30
2015,12,06,16,08,54.70
2015,12,06,16,09,40.20
2015,12,06,16,10,51.50
2015,12,06,16,11,41.80
2015,12,06,16,12,62.70
2015,12,06,16,13,54.70
2015,12,06,16,14,56.30
2015,12,06,16,15,38.60
2015,12,06,16,16,40.20
2015,12,06,16,17,48.30
2015,12,06,16,18,49.90
2015,12,06,16,19,40.20
2015,12,06,16,20,54.70
2015,12,06,16,21,66.00
2015,12,06,16,22,53.10
2015,12,06,16,23,54.70
2015,12,06,16,24,49.90
2015,12,06,16,25,56.30
2015,12,06,16,26,54.70
2015,12,06,16,27,49.90
2015,12,06,16,28,51.50
2015,12,06,16,29,48.30
2015,12,06,16,30,46.70
2015,12,06,16,31,41.80
2015,12,06,16,32,35.40
2015,12,06,16,33,45.10
2015,12,06,16,34,57.90
2015,12,06,16,35,49.90
2015,12,06,16,36,62.70
2015,12,06,16,37,61.20
2015,12,06,16,38,51.50
2015,12,06,16,39,53.10
2015,12,06,16,40,57.90
2015,12,06,16,41,46.70
2015,12,06,16,42,43.50
2015,12,06,16,43,43.50
2015,12,06,16,44,37.00
2015,12,06,16,45,40.20
2015,12,06,16,46,53.10
2015,12,06,16,47,43.50
2015,12,06,16,48,41.80
2015,12,06,16,49,40.20
2015,12,06,16,50,40.20
2015,12,06,16,51,40.20
2015,12,06,16,52,49.90
2015,12,06,16,53,38.60
2015,12,06,16,54,45.10
2015,12,06,16,55,53.10
2015,12,06,16,56,37.00
2015,12,06,16,57,40.20
2015,12,06,16,58,46.70
2015,12,06,16,59,59.50
2015,12,06,17,00,54.70
2015,12,06,17,01,49.90
2015,12,06,17,02,75.60
2015,12,06,17,03,51.50
2015,12,06,17,04,53.10
2015,12,06,17,05,62.70
2015,12,06,17,06,59.50
2015,12,06,17,07,48.30
2015,12,06,17,08,49.90
2015,12,06,17,09,56.30
2015,12,06,17,10,41.80
2015,12,06,17,11,35.40
2015,12,06,17,12,49.90
2015,12,06,17,13,38.60
2015,12,06,17,14,54.70
2015,12,06,17,15,59.50
2015,12,06,17,16,43.50
2015,12,06,17,17,49.90
2015,12,06,17,18,45.10
2015,12,06,17,19,33.80
2015,12,06,17,20,43.50